Skip Page Navigation
NASA JPL Caltech
NASA Logo - Jet Propulsion Laboratory + View the NASA Portal
+ Center for Near-Earth Object Studies
JPL Home Earth Solar System Stars & Galaxies Technology
JPL Solar System Dynamics
BODIES ORBITS EPHEMERIDES TOOLS PHYSICAL DATA DISCOVERY FAQ SITE MAP
JPL Small-Body Database Browser
Search: [ help ]  
382995 (2005 GO10)
Classification: Main-belt Asteroid          SPK-ID: 2382995
Ephemeris | Orbit Diagram | Orbital Elements | Mission Design | Physical Parameters | Discovery Circumstances | Close-Approach Data ]

[ show orbit diagram ]
Orbital Elements at Epoch 2459000.5 (2020-May-31.0) TDB
Reference: JPL 15 (heliocentric ecliptic J2000)
 Element Value Uncertainty (1-sigma)   Units 
e .1805278357455324 7.1188e-08  
a 2.752120067987341 2.5847e-08 au
q 2.255285788401739 1.8347e-07 au
i 2.712664262593268 5.4989e-06 deg
node 130.4713334099875 0.00010988 deg
peri 67.43926254335877 0.00011096 deg
M 112.1568302261625 1.4864e-05 deg
tp 2458480.955539561898
(2018-Dec-28.45553956)
6.5859e-05 TDB
period 1667.629206179967
4.57
2.3492e-05
6.432e-08
d
yr
n .2158753268807583 3.0411e-09 deg/d
Q 3.248954347572944 3.0513e-08 au
  Orbit Determination Parameters
   # obs. used (total)      200  
   data-arc span      7560 days (20.70 yr)  
   first obs. used      2000-02-03  
   last obs. used      2020-10-15  
   planetary ephem.      DE431  
   SB-pert. ephem.      SB431-N16  
   condition code      0  
   norm. resid. RMS      .65744  
   source      ORB  
   producer      Otto Matic  
   solution date      2020-Nov-12 17:38:35  

Additional Information
 Earth MOID = 1.2552 au 
 Jupiter MOID = 1.70845 au 
 T_jup = 3.320 
[ hide covariance matrix ]
Orbital Elements at Epoch 2457763.5 (2017-Jan-10.0) TDB
Reference: JPL 15 (heliocentric ecliptic J2000)
 Element Value Uncertainty (1-sigma)   Units 
e .1792670113200776 7.1403e-08  
q 2.259849964264566 1.8377e-07 au
tp 2458480.991643314772
(2018-Dec-28.49164331)
6.624e-05 TDB
node 130.5112075629321 0.00011005 deg
peri 67.50001671930475 0.00011114 deg
i 2.710254354840638 5.4924e-06 deg
  Orbit Determination Parameters
   # obs. used (total)      200  
   data-arc span      7560 days (20.70 yr)  
   first obs. used      2000-02-03  
   last obs. used      2020-10-15  
   planetary ephem.      DE431  
   SB-pert. ephem.      SB431-N16  
   condition code      0  
   norm. resid. RMS      .65744  
   source      ORB  
   producer      Otto Matic  
   solution date      2020-Nov-12 17:38:35  

Additional Information
 Jupiter MOID = 1.70845 au 
 T_jup = 3.320 
Orbit Covariance (6×6)
  e q tp node peri i
e 5.098366176188997E-15 -1.306888050584789E-14 -1.850902322817865E-13 -1.456413316264285E-14 -3.031612853115547E-13 -4.740242622415203E-15
q -1.306888050584789E-14 3.377194140920796E-14 1.013996765179232E-12 3.416840666573723E-14 8.688336385125661E-13 1.193471870552173E-14
tp -1.850902322817865E-13 1.013996765179232E-12 4.387754968634515E-9 -2.443567581322199E-11 1.019918083930183E-9 -1.369298476574707E-12
node -1.456413316264285E-14 3.416840666573723E-14 -2.443567581322199E-11 1.21102815186197E-8 -1.2101366305171E-8 1.9951633824979E-10
peri -3.031612853115547E-13 8.688336385125661E-13 1.019918083930183E-9 -1.2101366305171E-8 1.235141751459114E-8 -1.993541636909228E-10
i -4.740242622415203E-15 1.193471870552173E-14 -1.369298476574707E-12 1.9951633824979E-10 -1.993541636909228E-10 3.016637611187422E-11

Ephemeris | Orbit Diagram | Orbital Elements | Mission Design | Physical Parameters | Discovery Circumstances | Close-Approach Data ]

Physical Parameter Table
Parameter Symbol Value Units Sigma Reference Notes
absolute magnitude H 16.8   n/a MPO434375  

382995 (2005 GO10)          Discovered 2005-Apr-01 by Spacewatch at Kitt Peak
Reference: Last Updated: 2014-01-21

[ show close-approach data ]
Alternate Designations
 2005 GO10 = 2005 EF152 
Ephemeris | Orbit Diagram | Orbital Elements | Mission Design | Physical Parameters | Discovery Circumstances | Close-Approach Data ]
ABOUT SSD CREDITS/AWARDS PRIVACY/COPYRIGHT GLOSSARY LINKS
FirstGov 2021-Jan-27 02:04 UT
(server date/time)  
NASA Home Page
Site Manager:   Ryan S. Park
Webmaster  Alan B. Chamberlin